Wind_Speed
20 21 21 20 19 18 17 17 18 18 19 20 19 18 19 23 25 16 6 10 7 19 14 18 10 1 2 2 3 2 3 1 5 4 2 5 3 4 6 7 4 1 5 14 28
20 21 22 22 21 20 19 18 19 19 19 21 19 17 18 23 20 10 15 12 12 22 18 17 4 2 2 2 2 2 2 5 4 2 4 2 5 9 4 8 2 10 15 30 27
21 22 23 23 23 22 20 20 20 20 19 20 18 16 17 17 3 5 4 14 14 21 14 14 10 4 0 2 2 2 3 3 5 5 6 4 3 3 9 4 6 14 15 19 21
22 23 24 25 25 23 21 20 20 20 19 18 15 14 15 5 2 5 1 17 19 21 13 8 3 1 2 3 4 3 8 8 5 6 1 10 7 3 5 5 9 18 21 15 16
24 25 26 27 26 25 23 22 21 20 18 16 12 11 6 4 7 5 9 18 25 19 10 5 5 3 3 3 2 3 2 2 4 2 3 9 4 4 1 6 16 18 17 18 15
25 26 28 29 28 28 26 25 23 21 17 13 8 5 1 3 1 1 14 24 21 20 7 6 6 6 6 4 2 3 4 2 6 7 4 6 3 3 3 14 16 18 15 16 16
26 28 30 31 30 30 28 28 24 22 14 8 5 1 2 11 8 17 15 18 19 25 6 20 18 4 2 7 6 3 3 6 5 1 2 1 4 3 5 13 16 15 14 15 14
28 30 32 32 33 33 31 27 22 12 4 6 4 3 6 5 4 16 13 13 19 22 27 9 20 5 2 3 7 5 4 3 2 2 2 5 5 4 6 13 14 14 12 14 14
29 31 33 33 34 35 28 23 8 4 6 6 4 3 8 5 7 7 9 7 14 20 19 6 7 3 3 3 5 6 1 3 7 4 4 1 2 8 9 9 12 14 14 13 13
30 32 34 34 34 32 23 5 8 6 7 4 2 1 5 2 6 10 8 10 5 3 4 3 4 3 4 5 3 2 4 4 5 4 3 2 4 3 8 11 12 10 12 14 15
29 32 34 33 36 21 24 2 5 4 3 5 5 4 4 8 7 3 1 8 2 5 2 3 4 6 5 6 5 3 3 6 4 1 1 6 5 5 6 6 10 11 10 10 14
30 31 34 32 31 11 11 7 7 4 8 8 11 6 8 3 4 4 5 5 4 5 2 5 8 4 3 2 4 4 4 6 6 2 1 5 7 7 11 10 10 12 13 16 13
30 31 33 32 18 10 5 8 9 4 2 7 4 4 5 10 7 6 7 4 4 5 4 6 4 4 3 1 2 3 5 5 7 3 2 6 9 2 2 5 8 11 16 13 18
30 30 31 34 5 20 6 10 23 7 5 7 4 3 4 5 3 8 8 6 2 10 7 5 4 4 3 2 4 5 4 11 3 4 2 4 5 2 2 5 9 8 7 13 15
31 29 31 27 15 7 8 19 12 3 4 2 1 5 2 4 0 1 2 5 7 5 6 7 5 4 2 4 4 4 10 7 8 4 4 3 2 8 5 8 10 10 11 9 12
31 30 32 12 12 11 14 19 2 5 3 7 3 2 3 3 3 1 3 4 4 5 2 7 2 3 6 3 6 6 6 9 5 3 4 1 3 6 3 6 2 5 9 11 9
34 30 26 16 4 9 15 4 5 4 6 7 4 4 4 4 3 0 4 2 5 4 3 5 6 3 4 2 3 6 6 4 3 2 6 1 2 12 5 5 6 7 8 10 12
35 27 13 15 8 4 4 5 2 2 4 4 5 4 2 4 2 2 6 3 1 5 3 6 6 7 4 8 8 6 8 5 6 4 5 4 5 6 5 5 8 6 4 6 7
30 14 8 6 5 9 5 4 5 4 3 7 9 6 6 4 1 2 5 7 9 10 8 6 6 4 5 4 7 3 4 4 7 3 2 3 7 10 6 7 4 4 5 7 8
20 10 7 7 12 5 5 3 3 3 4 3 2 2 3 5 3 3 4 4 4 11 3 6 2 1 4 3 3 3 6 3 2 4 4 5 5 6 4 3 4 5 8 8 7
6 3 13 9 4 5 3 5 4 7 4 1 2 4 4 4 1 1 1 3 2 2 3 4 4 6 3 3 7 1 1 5 5 4 6 2 6 8 8 6 9 9 9 9 8
6 3 5 4 4 1 2 3 4 6 5 6 3 8 4 2 3 1 2 4 4 5 7 5 5 5 12 3 1 2 5 6 5 4 1 4 7 5 8 6 8 9 9 9 8
2 2 3 2 2 3 4 4 3 3 4 1 4 7 4 4 1 3 2 7 3 2 5 6 2 1 9 6 2 3 3 4 5 4 4 5 6 4 6 7 8 8 9 9 9
2 2 4 4 1 3 3 4 6 4 5 4 4 3 1 4 1 2 2 4 6 3 7 8 3 6 8 7 4 5 2 4 5 4 4 6 6 10 10 11 10 7 9 7 8
3 0 2 2 3 3 1 4 5 7 5 5 4 2 7 3 2 2 2 5 4 5 4 4 2 2 1 2 5 3 2 0 2 4 5 3 6 7 5 12 12 5 5 9 8
2 3 4 1 3 2 3 3 3 5 3 5 6 15 6 5 5 3 2 2 3 5 4 2 0 1 3 3 5 5 4 6 4 2 5 4 8 2 11 7 6 5 1 6 10
5 2 2 3 3 1 1 3 2 6 4 4 7 5 7 5 8 10 7 3 3 2 1 3 3 3 2 1 3 4 0 5 2 3 3 3 5 8 13 11 8 6 3 6 8
Wind_Direction
18 14 9 5 359 353 347 342 338 334 331 331 329 326 323 317 316 309 254 248 206 167 161 160 185 29 303 300 205 142 66 24 226 188 235 156 113 109 106 133 190 101 118 128 142
13 10 5 1 356 350 343 337 335 331 327 329 327 325 322 322 317 277 251 232 205 173 154 154 180 88 334 288 249 81 118 222 233 195 155 135 128 148 114 152 89 74 97 128 141
8 4 1 358 352 347 340 335 332 327 326 327 325 324 324 327 308 246 291 193 183 173 164 143 133 133 250 227 213 140 245 216 271 253 129 129 114 116 127 193 180 147 142 143 149
3 359 357 354 351 345 337 334 329 325 323 326 323 324 324 335 180 331 308 175 171 171 151 153 104 141 251 235 201 203 235 261 297 213 96 150 133 130 152 232 152 150 150 146 159
359 356 353 351 347 341 336 330 326 321 318 320 316 326 334 354 252 357 121 158 168 172 180 158 161 180 295 263 181 226 281 226 296 221 111 127 143 174 256 90 119 134 147 157 169
353 351 350 348 345 339 333 327 323 315 308 306 300 322 25 297 37 158 151 161 172 179 203 205 228 216 302 271 226 162 26 325 4 1 68 116 110 124 135 121 128 145 159 164 177
348 348 347 344 343 338 332 327 321 309 296 273 266 201 129 238 109 130 135 174 188 202 203 221 241 260 297 331 309 69 98 65 360 274 100 164 49 36 118 130 147 162 166 175 189
346 345 343 342 342 338 333 330 321 314 244 206 180 152 246 271 226 235 246 214 222 214 220 232 220 215 193 262 3 18 44 303 150 181 260 143 221 180 153 147 165 168 175 188 184
345 343 342 341 341 338 338 334 353 50 126 149 135 145 267 290 288 284 251 215 185 213 229 199 159 162 41 69 11 2 149 302 315 349 208 115 180 190 153 168 171 175 183 192 201
345 344 340 340 342 339 350 48 54 80 97 101 95 25 283 205 301 290 273 196 243 193 141 122 63 96 49 69 253 286 298 265 241 274 339 316 247 170 168 167 189 190 190 188 205
344 342 339 339 341 346 355 18 14 357 346 214 196 251 262 296 287 246 273 135 116 44 160 356 77 225 198 199 204 228 244 256 257 273 37 234 297 183 205 176 191 196 209 210 200
345 342 338 338 341 354 17 90 118 257 301 246 245 249 260 8 325 296 155 123 122 185 100 23 237 177 169 209 198 203 230 249 290 153 112 6 275 213 189 206 196 195 203 215 223
344 343 339 338 340 353 15 127 331 313 245 299 213 199 217 146 213 256 139 131 135 140 169 171 240 117 167 162 336 248 204 230 229 76 75 352 300 103 205 183 207 209 210 204 213
342 343 339 340 342 336 316 331 338 171 46 284 313 308 133 155 236 212 200 138 119 183 168 229 250 232 138 208 155 288 210 248 164 70 285 6 280 302 203 239 218 221 199 209 203
339 339 334 336 303 301 317 329 343 125 23 331 85 165 130 167 340 317 205 58 159 168 122 239 182 174 176 198 165 257 43 65 88 68 26 353 51 272 169 203 235 217 216 211 208
335 333 327 325 303 292 323 330 56 42 274 335 97 47 100 307 309 134 152 65 144 124 340 225 260 209 210 176 184 135 65 44 53 44 336 219 117 280 228 220 232 192 211 208 210
330 327 314 293 244 306 331 12 48 128 320 331 331 10 250 213 226 112 119 149 144 102 280 322 258 241 153 134 50 78 66 13 3 5 225 172 131 246 257 241 209 245 235 205 196
329 325 308 272 259 280 346 53 124 262 279 315 310 305 212 175 205 129 102 184 193 97 110 174 314 182 172 173 183 174 155 154 203 207 264 137 239 261 217 192 236 276 226 184 191
332 329 318 332 292 199 77 70 211 218 306 332 325 50 341 12 146 119 176 199 207 172 175 159 273 281 204 156 130 180 160 180 104 349 33 256 291 298 263 262 273 203 176 201 202
331 332 351 343 128 118 72 236 239 231 317 348 301 21 340 303 44 44 203 196 250 192 173 204 325 272 290 89 55 164 155 78 9 138 226 289 284 241 280 241 208 189 201 215 225
346 33 359 131 11 48 144 227 268 250 228 272 293 309 250 287 227 305 227 260 240 47 122 131 123 284 360 180 185 72 67 43 121 127 160 235 269 212 242 174 204 215 211 210 225
349 52 17 5 51 35 134 210 252 274 243 255 205 216 238 271 292 287 258 234 35 149 156 209 156 204 225 264 359 138 173 156 128 228 85 146 279 220 248 240 190 218 224 208 208
26 280 24 316 79 343 308 301 254 306 292 208 268 200 170 271 272 191 265 272 346 121 173 180 227 10 335 351 48 188 142 101 101 86 194 136 262 322 300 282 248 228 189 207 230
48 44 334 47 52 121 356 309 322 284 261 250 263 275 221 248 299 300 292 289 342 41 66 91 116 159 192 205 161 129 115 143 113 107 177 228 282 298 329 329 323 286 265 204 216
24 22 166 331 352 14 359 328 347 350 332 339 313 337 247 164 144 257 262 312 326 16 80 95 68 271 66 70 74 101 6 356 127 143 159 267 238 267 321 308 306 339 258 285 259
62 28 357 316 303 319 344 8 342 323 271 315 360 325 11 60 11 302 325 232 253 334 64 28 36 294 77 35 115 89 40 78 58 28 283 319 281 222 311 297 309 310 153 257 279
12 19 100 312 339 80 87 318 327 352 283 263 324 330 344 331 297 256 256 260 275 316 43 76 106 55 208 97 150 40 235 106 129 271 216 255 264 317 319 323 305 326 318 245 239
Height
801 798 795 792 789 786 783 781 777 774 771 767 764 762 758 754 751 749 745 739 739 742 747 751 754 756 756 757 756 757 781 789 775 773 764 748 757 753 751 761 760 761 765 771 781
801 798 795 792 789 786 782 779 776 773 769 766 762 760 757 753 749 744 735 736 738 741 746 751 756 757 762 761 759 766 782 772 752 751 757 749 751 756 762 767 768 772 771 776 783
801 798 795 791 787 784 781 778 774 770 767 764 761 758 755 752 751 736 733 734 738 741 746 752 754 757 766 761 761 764 772 756 749 743 743 750 755 749 763 773 765 772 776 779 783
800 797 794 790 786 783 779 776 772 768 765 762 759 756 753 752 762 734 731 735 740 743 747 751 755 761 768 766 756 768 755 750 744 739 743 753 750 757 757 757 753 761 769 776 783
799 796 792 788 784 780 776 773 769 765 762 759 757 755 752 753 746 735 734 739 742 744 746 751 757 758 766 756 752 760 751 744 740 739 742 745 754 757 759 753 754 764 770 777 781
799 795 790 786 781 777 772 768 765 761 758 756 756 756 755 761 739 736 738 740 742 745 747 749 748 748 756 753 753 748 750 749 744 743 743 753 756 752 757 756 762 767 773 775 780
796 793 788 783 778 773 768 763 758 755 754 753 754 755 756 748 737 739 741 742 742 742 745 746 746 754 748 756 741 747 759 749 748 745 753 745 764 767 756 759 766 769 772 774 777
794 790 785 780 774 768 763 757 752 749 749 750 752 754 754 735 737 739 740 743 742 743 743 744 746 747 749 745 753 762 759 777 751 747 749 748 779 759 755 760 770 771 773 775 773
792 787 782 776 770 763 758 753 749 748 748 750 753 754 753 736 733 732 734 737 738 741 743 744 743 751 751 770 786 780 789 778 765 747 750 754 770 753 751 757 766 770 770 772 775
791 786 780 773 768 760 756 751 750 750 751 753 754 759 739 738 733 731 731 734 736 736 740 742 753 767 777 784 810 791 786 775 776 755 754 763 762 757 754 755 760 764 767 769 771
790 784 778 772 766 760 754 752 757 758 752 750 746 745 739 734 732 728 729 732 734 740 758 753 767 779 772 771 771 772 776 779 759 751 763 766 765 761 758 758 759 761 762 762 763
789 783 776 771 765 761 757 760 767 770 767 741 739 740 736 735 741 729 728 738 744 762 755 768 777 760 756 762 770 773 777 777 762 755 764 770 766 759 756 754 753 755 756 755 756
788 782 776 769 764 762 762 763 764 762 769 744 735 735 732 734 742 736 729 736 749 762 764 778 762 752 758 764 768 773 779 776 770 763 763 768 770 760 752 747 748 745 743 748 751
786 781 776 769 767 763 761 761 759 757 785 757 739 730 730 731 738 724 725 732 746 764 766 766 751 754 760 764 765 780 759 756 765 781 800 780 808 768 760 757 752 748 746 745 746
783 780 775 772 770 766 761 758 756 757 802 739 737 725 728 736 730 727 723 729 753 754 761 767 757 757 762 758 755 768 757 761 774 793 796 794 809 774 762 766 752 744 740 741 740
780 776 772 770 768 761 759 756 756 792 799 754 736 740 742 735 733 728 729 728 735 750 754 757 744 745 750 744 747 748 768 781 792 804 822 798 806 779 759 744 737 738 736 736 738
775 772 768 766 763 760 759 757 795 807 760 764 756 750 748 745 739 736 742 749 765 779 778 762 754 742 738 753 751 765 790 829 824 828 829 803 812 772 741 736 731 730 730 728 728
770 764 760 759 759 759 760 776 796 778 774 756 753 752 752 742 742 743 753 763 752 763 788 786 786 751 738 747 759 771 780 818 830 835 815 805 804 758 731 724 722 723 722 724 725
765 760 757 757 756 760 769 800 793 783 767 767 760 765 761 745 743 746 753 762 750 754 774 789 777 740 734 731 738 764 784 769 813 818 814 800 778 741 730 730 726 722 723 723 722
765 762 759 758 757 761 781 795 785 773 764 763 773 761 770 759 753 751 755 742 745 742 734 757 776 744 735 729 736 747 754 788 804 818 812 803 795 778 739 731 729 726 722 721 721
767 766 763 761 762 769 792 793 777 765 763 766 768 768 765 759 750 754 747 737 730 736 739 753 764 761 739 746 755 761 768 781 789 800 815 812 791 741 731 728 728 724 720 718 719
773 775 768 767 778 794 790 781 769 763 756 759 760 764 764 752 752 751 749 740 724 730 749 747 766 777 761 738 737 739 748 770 793 791 806 802 784 717 717 718 721 720 716 714 714
785 784 769 769 790 792 783 776 768 765 761 758 759 756 754 751 756 749 743 724 723 729 739 743 767 785 773 757 740 744 746 765 778 788 802 800 781 719 719 716 708 710 714 712 709
787 784 778 776 783 782 783 779 776 759 760 754 756 750 752 754 748 749 745 729 725 725 729 735 769 768 783 763 749 753 746 753 765 789 792 787 755 732 725 727 718 710 701 704 706
790 794 793 793 787 787 784 782 778 777 762 757 754 754 758 756 753 752 744 738 726 727 732 742 763 755 748 745 753 757 757 750 751 762 766 756 759 739 740 735 726 717 711 706 699
795 797 794 794 792 787 790 788 782 778 775 767 768 756 751 757 760 754 747 743 739 730 735 744 758 755 756 751 753 763 759 759 761 763 765 760 759 735 731 727 721 714 711 713 707
796 796 797 796 793 790 792 788 781 779 768 765 766 764 759 754 750 746 742 741 740 740 744 749 759 771 768 762 764 771 762 762 762 761 766 763 746 736 730 726 718 709 703 704 703